W0QQ Weather Reports


Display with metric or nautical units.
time (UTC)temp
F
wind
direction
speed
MPH
gust
MPH
rain 1hr
in
rain 24hr
in
rain mn
in
humidity
%
barometer
mb
20260504081519 64 209 4.0 13.0 0.00 0.00 0.00 59 1004.4
20260504070123 64 11 2.0 10.0 0.00 0.00 0.00 56 1005.4
20260504060134 64 11 0.0 4.0 0.00 0.00 0.00 57 1006.3
20260504050003 63 94 0.0 2.0 0.00 0.00 0.00 64 1006.9
20260504044557 64 85 0.0 5.0 0.00 0.00 0.00 66 1007.0
20260504043018 65 11 2.0 4.0 0.00 0.00 0.00 65 1007.1
20260504041609 66 222 0.0 2.0 0.00 0.00 0.00 58 1007.0
20260504040027 67 222 0.0 2.0 0.00 0.00 0.00 56 1006.9
20260504034619 67 222 0.0 1.0 0.00 0.00 0.00 54 1006.9
20260504033029 66 204 3.0 9.0 0.00 0.00 0.00 55 1007.0
20260504031623 67 135 0.0 2.0 0.00 0.00 0.00 57 1007.2
20260504030100 67 134 0.0 1.0 0.00 0.00 0.00 57 1007.2
20260504024632 68 135 0.0 2.0 0.00 0.00 0.00 56 1007.1
20260504023041 69 135 0.0 2.0 0.00 0.00 0.00 55 1007.1
20260504021626 69 135 0.0 4.0 0.00 0.00 0.00 55 1007.2
20260504020038 70 101 0.0 1.0 0.00 0.00 0.00 53 1007.1
20260504014624 71 35 0.0 2.0 0.00 0.00 0.00 53 1007.0
20260504013037 72 33 0.0 0.0 0.00 0.00 0.00 50 1007.1
20260504011629 73 32 1.0 2.0 0.00 0.00 0.00 50 1007.0
20260504010053 74 32 1.0 3.0 0.00 0.00 0.00 47 1007.2
20260504004502 75 30 0.0 2.0 0.00 0.00 0.00 46 1007.1
20260504003052 76 30 0.0 0.0 0.00 0.00 0.00 45 1007.2
20260504001526 77 30 0.0 2.0 0.00 0.00 0.00 44 1007.3
20260504000058 78 30 1.0 3.0 0.00 0.00 0.00 43 1007.5
20260503234508 79 30 0.0 1.0 0.00 0.00 0.00 41 1007.6
20260503233110 80 30 0.0 5.0 0.00 0.00 0.00 40 1007.8
20260503231522 80 259 2.0 6.0 0.00 0.00 0.00 40 1007.9
20260503230114 81 31 0.0 4.0 0.00 0.00 0.00 39 1008.1
20260503224517 82 295 0.0 9.0 0.00 0.00 0.00 38 1007.9
20260503223114 82 315 1.0 8.0 0.00 0.00 0.00 39 1008.1
20260503221522 83 270 3.0 8.0 0.00 0.00 0.00 38 1008.1
20260503220109 83 290 3.0 10.0 0.00 0.00 0.00 36 1008.2
20260503214528 84 11 6.0 15.0 0.00 0.00 0.00 34 1008.4
20260503213107 84 11 6.0 17.0 0.00 0.00 0.00 32 1008.5
20260503211504 85 295 7.0 17.0 0.00 0.00 0.00 36 1008.6
20260503210053 85 11 2.0 15.0 0.00 0.00 0.00 38 1008.9
20260503204522 84 245 6.0 17.0 0.00 0.00 0.00 37 1009.2
20260503203105 83 252 4.0 15.0 0.00 0.00 0.00 38 1009.3
20260503201513 84 242 5.0 17.0 0.00 0.00 0.00 39 1009.7
20260503200105 83 311 5.0 15.0 0.00 0.00 0.00 37 1009.9
20260503194519 83 11 8.0 17.0 0.00 0.00 0.00 37 1010.2
20260503193113 82 11 4.0 12.0 0.00 0.00 0.00 39 1010.2
20260503191519 82 11 5.0 14.0 0.00 0.00 0.00 43 1010.5
20260503190110 81 11 1.0 10.0 0.00 0.00 0.00 46 1010.8
20260503184524 80 11 2.0 12.0 0.00 0.00 0.00 48 1011.0
20260503183118 80 11 6.0 16.0 0.00 0.00 0.00 48 1011.4
20260503181552 78 11 6.0 16.0 0.00 0.00 0.00 48 1011.6
20260503180121 77 11 3.0 16.0 0.00 0.00 0.00 48 1012.0
20260503174534 76 11 8.0 22.0 0.00 0.00 0.00 47 1012.1
20260503173126 76 222 6.0 18.0 0.00 0.00 0.00 47 1012.5
20260503171539 75 11 8.0 19.0 0.00 0.00 0.00 46 1012.6
20260503170125 75 11 2.0 16.0 0.00 0.00 0.00 49 1012.8
20260503110118 50 11 7.0 19.0 0.00 0.00 0.00 59 1015.4
20260503100122 50 11 5.0 16.0 0.00 0.00 0.00 59 1015.6